| time (UTC) | temp F | wind direction | speed knots | gust knots | rain 1hr in | rain 24hr in | rain mn in | humidity % | barometer mb |
| 20260504041558 | 39 | 0.0 | 0.0 | 0.00 | 0.00 | 0.00 | 76 | 1023.4 | |
| 20260504040559 | 38 | 0.0 | 0.0 | 0.00 | 0.00 | 0.00 | 78 | 1023.5 | |
| 20260504035558 | 38 | 0.0 | 0.0 | 0.00 | 0.00 | 0.00 | 81 | 1023.3 | |
| 20260504034558 | 38 | 0.0 | 0.0 | 0.00 | 0.00 | 0.00 | 79 | 1023.3 | |
| 20260504033558 | 38 | 0.0 | 0.0 | 0.00 | 0.00 | 0.00 | 79 | 1023.5 | |
| 20260504032558 | 39 | 0.0 | 0.0 | 0.00 | 0.00 | 0.00 | 77 | 1023.2 | |
| 20260504031558 | 39 | 0.0 | 0.0 | 0.00 | 0.00 | 0.00 | 78 | 1023.0 | |
| 20260504030558 | 38 | 0.0 | 0.0 | 0.00 | 0.00 | 0.00 | 78 | 1023.0 | |
| 20260504025558 | 40 | 0.0 | 0.0 | 0.00 | 0.00 | 0.00 | 73 | 1022.9 | |
| 20260504024558 | 41 | 0.0 | 0.0 | 0.00 | 0.00 | 0.00 | 70 | 1023.0 | |
| 20260504023618 | 41 | 0.0 | 0.0 | 0.00 | 0.00 | 0.00 | 69 | 1022.7 | |
| 20260504022558 | 41 | 0.0 | 0.0 | 0.00 | 0.00 | 0.00 | 68 | 1022.7 | |
| 20260504021558 | 41 | 0.0 | 0.0 | 0.00 | 0.00 | 0.00 | 69 | 1022.7 | |
| 20260504020559 | 42 | 0.0 | 0.0 | 0.00 | 0.00 | 0.00 | 69 | 1022.6 | |
| 20260504015558 | 42 | 0.0 | 0.0 | 0.00 | 0.00 | 0.00 | 68 | 1022.3 | |
| 20260504014617 | 44 | 0.0 | 0.0 | 0.00 | 0.00 | 0.00 | 64 | 1022.1 | |
| 20260504013638 | 44 | 0.0 | 0.0 | 0.00 | 0.00 | 0.00 | 65 | 1021.9 | |
| 20260504012558 | 45 | 0.0 | 0.0 | 0.00 | 0.00 | 0.00 | 61 | 1021.6 | |
| 20260504011558 | 46 | 0.0 | 0.0 | 0.00 | 0.00 | 0.00 | 62 | 1021.5 | |
| 20260504010558 | 47 | 0.0 | 0.0 | 0.00 | 0.00 | 0.00 | 58 | 1021.5 | |
| 20260504005621 | 47 | 0.0 | 0.0 | 0.00 | 0.00 | 0.00 | 56 | 1021.3 | |
| 20260504004558 | 49 | 221 | 0.0 | 0.9 | 0.00 | 0.00 | 0.00 | 53 | 1021.2 |
| 20260504003558 | 50 | 0.0 | 0.0 | 0.00 | 0.00 | 0.00 | 50 | 1020.9 | |
| 20260504002558 | 50 | 0.0 | 0.0 | 0.00 | 0.00 | 0.00 | 48 | 1020.8 | |
| 20260504001559 | 52 | 288 | 0.9 | 1.7 | 0.00 | 0.00 | 0.00 | 51 | 1020.9 |
| 20260504000558 | 54 | 282 | 0.0 | 1.7 | 0.00 | 0.00 | 0.00 | 44 | 1020.7 |
| 20260503235559 | 55 | 227 | 0.0 | 0.9 | 0.00 | 0.00 | 0.00 | 40 | 1020.7 |
| 20260503234558 | 58 | 0.0 | 0.0 | 0.00 | 0.00 | 0.00 | 38 | 1020.5 | |
| 20260503233558 | 59 | 0.0 | 0.0 | 0.00 | 0.00 | 0.00 | 34 | 1020.5 | |
| 20260503232558 | 60 | 0.0 | 0.0 | 0.00 | 0.00 | 0.00 | 32 | 1020.4 | |
| 20260503231638 | 60 | 233 | 0.0 | 0.9 | 0.00 | 0.00 | 0.00 | 32 | 1020.2 |
| 20260503230558 | 60 | 0.0 | 0.9 | 0.00 | 0.00 | 0.00 | 32 | 1020.2 | |
| 20260503225558 | 60 | 298 | 0.9 | 1.7 | 0.00 | 0.00 | 0.00 | 31 | 1020.1 |
| 20260503224558 | 61 | 220 | 0.0 | 1.7 | 0.00 | 0.00 | 0.00 | 29 | 1020.1 |
| 20260503223559 | 62 | 243 | 0.9 | 1.7 | 0.00 | 0.00 | 0.00 | 28 | 1019.9 |
| 20260503222558 | 62 | 287 | 0.9 | 2.6 | 0.00 | 0.00 | 0.00 | 28 | 1020.0 |
| 20260503221558 | 64 | 237 | 0.9 | 1.7 | 0.00 | 0.00 | 0.00 | 28 | 1020.1 |
| 20260503220558 | 64 | 275 | 1.7 | 3.5 | 0.00 | 0.00 | 0.00 | 27 | 1020.1 |
| 20260503215558 | 64 | 236 | 0.0 | 2.6 | 0.00 | 0.00 | 0.00 | 27 | 1020.1 |
| 20260503214558 | 63 | 291 | 0.9 | 2.6 | 0.00 | 0.00 | 0.00 | 26 | 1020.2 |
| 20260503213558 | 64 | 244 | 1.7 | 5.2 | 0.00 | 0.00 | 0.00 | 27 | 1020.2 |
| 20260503212558 | 65 | 299 | 0.9 | 2.6 | 0.00 | 0.00 | 0.00 | 26 | 1020.2 |
| 20260503211558 | 64 | 248 | 0.9 | 3.5 | 0.00 | 0.00 | 0.00 | 27 | 1020.1 |
| 20260503210558 | 65 | 114 | 0.9 | 2.6 | 0.00 | 0.00 | 0.00 | 26 | 1020.2 |
| 20260503205618 | 66 | 214 | 0.9 | 2.6 | 0.00 | 0.00 | 0.00 | 27 | 1020.3 |
| 20260503204558 | 65 | 289 | 1.7 | 5.2 | 0.00 | 0.00 | 0.00 | 28 | 1020.5 |
| 20260503203558 | 64 | 214 | 0.9 | 2.6 | 0.00 | 0.00 | 0.00 | 26 | 1020.2 |
| 20260503202557 | 64 | 254 | 0.9 | 5.2 | 0.00 | 0.00 | 0.00 | 26 | 1020.4 |
| 20260503201558 | 64 | 292 | 2.6 | 3.5 | 0.00 | 0.00 | 0.00 | 26 | 1020.7 |
| 20260503200559 | 63 | 229 | 1.7 | 5.2 | 0.00 | 0.00 | 0.00 | 27 | 1020.8 |
| 20260503195557 | 63 | 229 | 1.7 | 5.2 | 0.00 | 0.00 | 0.00 | 28 | 1020.7 |
| 20260503194559 | 64 | 283 | 1.7 | 3.5 | 0.00 | 0.00 | 0.00 | 27 | 1020.9 |
| 20260503193558 | 64 | 67 | 0.9 | 6.1 | 0.00 | 0.00 | 0.00 | 28 | 1021.1 |
| 20260503192558 | 64 | 74 | 0.0 | 2.6 | 0.00 | 0.00 | 0.00 | 28 | 1021.2 |
| 20260503191558 | 62 | 39 | 0.9 | 3.5 | 0.00 | 0.00 | 0.00 | 29 | 1021.3 |
| 20260503190617 | 62 | 219 | 0.9 | 3.5 | 0.00 | 0.00 | 0.00 | 28 | 1021.5 |
| 20260503185558 | 62 | 232 | 1.7 | 5.2 | 0.00 | 0.00 | 0.00 | 28 | 1021.8 |
| 20260503184558 | 62 | 238 | 2.6 | 6.1 | 0.00 | 0.00 | 0.00 | 31 | 1021.8 |
| 20260503183558 | 61 | 181 | 0.9 | 5.2 | 0.00 | 0.00 | 0.00 | 30 | 1022.1 |
| 20260503182558 | 61 | 239 | 2.6 | 5.2 | 0.00 | 0.00 | 0.00 | 29 | 1022.1 |
| 20260503181557 | 61 | 261 | 1.7 | 6.1 | 0.00 | 0.00 | 0.00 | 30 | 1022.0 |
| 20260503180558 | 61 | 235 | 1.7 | 2.6 | 0.00 | 0.00 | 0.00 | 31 | 1022.1 |
| 20260503175559 | 60 | 284 | 1.7 | 7.0 | 0.00 | 0.00 | 0.00 | 33 | 1022.2 |
| 20260503174558 | 59 | 191 | 2.6 | 5.2 | 0.00 | 0.00 | 0.00 | 33 | 1022.2 |
| 20260503173558 | 59 | 274 | 1.7 | 6.1 | 0.00 | 0.00 | 0.00 | 34 | 1022.3 |
| 20260503172558 | 59 | 234 | 2.6 | 6.1 | 0.00 | 0.00 | 0.00 | 33 | 1022.5 |
| 20260503171558 | 61 | 328 | 0.9 | 2.6 | 0.00 | 0.00 | 0.00 | 34 | 1022.5 |
| 20260503170558 | 57 | 121 | 0.9 | 3.5 | 0.00 | 0.00 | 0.00 | 34 | 1022.8 |
| 20260503150618 | 53 | 316 | 1.7 | 7.0 | 0.00 | 0.00 | 0.00 | 39 | 1024.0 |
| 20260503130618 | 46 | 307 | 0.0 | 1.7 | 0.00 | 0.00 | 0.00 | 51 | 1024.5 |
| 20260503110600 | 39 | 208 | 0.0 | 1.7 | 0.00 | 0.00 | 0.00 | 67 | 1024.1 |
| 20260503081618 | 41 | 0.0 | 0.0 | 0.00 | 0.00 | 0.00 | 65 | 1022.8 | |
| 20260503080617 | 41 | 238 | 0.0 | 1.7 | 0.00 | 0.00 | 0.00 | 63 | 1022.7 |
| 20260503072558 | 41 | 0.0 | 0.0 | 0.00 | 0.00 | 0.00 | 63 | 1022.3 | |
| 20260503071558 | 42 | 211 | 0.9 | 2.6 | 0.00 | 0.00 | 0.00 | 62 | 1022.3 |
| 20260503070558 | 42 | 249 | 0.0 | 0.9 | 0.00 | 0.00 | 0.00 | 65 | 1022.2 |
| 20260503054557 | 43 | 265 | 0.0 | 1.7 | 0.00 | 0.00 | 0.00 | 61 | 1022.0 |
| 20260503053557 | 43 | 0.0 | 1.7 | 0.00 | 0.00 | 0.00 | 61 | 1021.9 | |
| 20260503052618 | 42 | 286 | 0.9 | 7.0 | 0.00 | 0.00 | 0.00 | 64 | 1021.8 |
| 20260503051559 | 42 | 217 | 0.9 | 1.7 | 0.00 | 0.00 | 0.00 | 64 | 1021.7 |
| 20260503050558 | 42 | 0.0 | 0.0 | 0.00 | 0.00 | 0.00 | 64 | 1018.1 | |
| 20260503045558 | 43 | 214 | 0.0 | 0.9 | 0.00 | 0.00 | 0.00 | 62 | 1022.0 |
| 20260503044558 | 43 | 229 | 0.9 | 1.7 | 0.00 | 0.00 | 0.00 | 64 | 1022.0 |
| 20260503043558 | 43 | 79 | 0.0 | 0.9 | 0.00 | 0.00 | 0.00 | 61 | 1022.0 |
| 20260503042558 | 43 | 78 | 0.0 | 1.7 | 0.00 | 0.00 | 0.00 | 61 | 1021.9 |